Location: *
(37.5724°S, 58.0067°E)
Time: 06:25:33
(UTC+00:00)

Cosmos 1933 Rocket - Pass Details

Date: 31 January 2021
Orbit: 607 x 630 km, 82.5° (Epoch: 04 March)

Event Time Altitude Azimuth Distance (km) Brightness Sun altitude
Rises 17:53:04 0° 179° (S) 2,957 7.8 -25.1°
Reaches altitude 10° 17:55:29 10° 170° (S) 2,039 6.7 -25.4°
Enters shadow 17:58:30 32° 137° (SE) 1,108 4.8 -25.8°
